CZ-6A DEB, 54928

Orbit data source: Space-Track

CZ-6A DEB, 54928 is space debris in SSO originally from a launch on Fri, 11 Nov 2022 UTC launched from the Taiyaun Space Center, China (TSC). Debris objects in space refer to the collection of defunct objects orbiting the Earth. Examples of debris include non-operational satellites, rocket bodies, and fragments generated from explosions, collisions, or faulty payload assembly.

Loading next visibility...
Identifier
54928, 2022-151RR
Orbit
SSO
Country
Flag of CNCN / PRC
Related business
Manufacturer
SAST
Mission
Spacecraft
Bus & Motor
Unknown
Mass
Unknown
Launch date (UTC)
2022-11-11 (3 years ago)
Launch vehicle
Unknown
Launch site
Taiyaun Space Center, China (TSC)
Object type
Payload
Rocket body
Debris
Shape & HBR
Unknown shape, 0.1 m
Radar Cross Section
Small (<0.1 m²)

Expand to show TLE details & history
Last TLE update: 21 hours ago

TLE from 21 hours ago
0 CZ-6A DEB
1 54928U 22151RR  26130.04496786  .00001639  00000-0  51425-3 0  9994
2 54928  98.6200 160.8827 0060484 123.3634 237.3363 14.40870510182357
Epoch: 2026-05-10T01:04Z
TLE epoch observation values (Epoch: 2026-05-10T01:04:45.223Z)
Latitude
-0.00001°
Longitude
-83.15942°
Altitude
782.046 km
Speed
7.451 km/s
True Right ascension
10h 43m 31s
True Declination
0° 00' 00"
Sunlit
Object was in daylight at epoch
Visualization orbit readout
Latitude
Unknown
Longitude
Unknown
Altitude
Unknown
Speed
Unknown
Apparent Right ascension
Unknown
Apparent Declination
Unknown
Sunlit
N/A
Visualization observer readout
Local Sidereal Time
06:26:25
Azimuth
Unknown
Elevation
Unknown
Doppler factor
Unknown
Orbital elements
Apogee altitude
795.88 km
Perigee altitude
709.62 km
Semi-major axis
7,130.887 km
Eccentricity
0.00605
Inclination
98.62°
RAAN
160.8827°
Arg. of periapsis
123.3634°
True anomaly
236.7552°
Mean anomaly
237.3363°
Eccentric anomaly
237.04551°
Mean motion
3.60436 °/min
Orbital period
99.88 mins
BSTAR
0.00051425
Loading maneuver chart data...
Computing Atmospheric mass density...
Loading historical data...
Loading historical data...
Loading historical data...
Loading historical data...
Loading historical data...
Loading historical data...
Loading historical data...

Documentation

Showing up to 5 results
|